Date String (YYYY-MM-DD hh:mm:ss) UTC,Instrument flags,Ambient pressure (hPa),Sample flow (lpm),Bypass flow (lpm),Sample temperature (°C),Ambient temperature (°C),ASC tube jacket temperature (°C),LED temperature (°C),Box temperature (°C),Sample RH (%),Span deviation,Mass concentration (μg/m³),Mass concentration (μg/m³),Mass concentration (μg/m³)
DateTimeUTC,F1_M11,P_M11,Q1_M11,Q2_M11,T1_M11,T2_M11,T3_M11,T4_M11,T5_M11,U1_M11,ZSPAN_M11,X0_M11,X2_M11,X1_M11
2023-05-18 14:00:00,,0831.6,5.00,0.00,29.2,27.6,00.0,37.6,30.8,28.4,0000.0,0010.22,0005.91,0005.21
2023-05-18 14:01:00,,0831.6,4.99,0.00,29.2,27.6,00.0,37.6,30.8,28.3,0000.0,0010.22,0005.90,0005.20
2023-05-18 14:02:00,,0831.6,5.00,0.00,29.2,27.6,00.0,37.6,30.8,28.0,0002.0,0010.24,0005.91,0005.21
2023-05-18 14:03:00,,0831.6,4.99,0.00,29.2,27.6,00.0,37.6,30.8,28.2,0000.0,0010.09,0005.89,0005.21
2023-05-18 14:04:00,,0831.6,5.00,0.00,29.2,27.6,00.0,37.6,30.8,28.6,0000.0,0009.76,0005.90,0005.20
2023-05-18 14:05:00,,0831.6,5.00,0.00,29.2,27.6,00.0,37.6,30.8,29.0,0000.0,0009.54,0005.91,0005.18
2023-05-18 14:06:00,,0831.6,5.00,0.00,29.2,27.6,00.0,37.6,30.8,28.9,0000.0,0009.56,0005.90,0005.17
2023-05-18 14:07:00,,0831.6,5.01,0.00,29.2,27.6,00.0,37.6,30.8,28.3,0000.0,0009.95,0005.93,0005.18
2023-05-18 14:08:00,,0831.7,5.01,0.00,29.2,27.6,00.0,37.6,30.8,28.2,0000.9,0009.90,0005.88,0005.16
2023-05-18 14:09:00,,0831.7,4.98,0.00,29.2,27.6,00.0,37.6,30.8,28.3,0002.1,0009.80,0005.85,0005.16
2023-05-18 14:10:00,,0831.7,5.00,0.00,29.2,27.7,00.0,37.6,30.8,28.3,0000.0,0010.02,0005.93,0005.17
2023-05-18 14:11:00,,0831.7,5.01,0.00,29.2,27.7,00.0,37.6,30.8,27.8,0000.0,0010.11,0005.93,0005.16
2023-05-18 14:12:00,,0831.7,4.99,0.00,29.2,27.7,00.0,37.6,30.8,27.6,0000.4,0010.11,0005.95,0005.18
2023-05-18 14:13:00,,0831.7,5.00,0.00,29.2,27.7,00.0,37.6,30.8,27.9,0000.1,0010.14,0005.95,0005.16
2023-05-18 14:14:00,,0831.7,5.01,0.00,29.2,27.7,00.0,37.6,30.9,28.2,0000.0,0010.33,0005.97,0005.17
2023-05-18 14:15:00,,0831.7,5.00,0.00,29.2,27.7,00.0,37.6,30.8,28.2,0000.0,0010.24,0005.97,0005.18
2023-05-18 14:16:00,,0831.7,5.00,0.00,29.2,27.7,00.0,37.6,30.8,28.3,0000.0,0010.13,0005.96,0005.20
2023-05-18 14:17:00,,0831.7,5.00,0.00,29.3,27.7,00.0,37.6,30.8,28.3,0000.0,0010.50,0006.01,0005.22
2023-05-18 14:18:00,,0831.7,4.99,0.00,29.3,27.7,00.0,37.6,30.8,28.4,0000.5,0010.30,0006.00,0005.22
2023-05-18 14:19:00,,0831.7,4.99,0.00,29.2,27.7,00.0,37.6,30.9,28.4,0001.5,0010.40,0006.08,0005.24
2023-05-18 14:20:00,,0831.7,5.00,0.00,29.2,27.7,00.0,37.6,30.9,28.4,0002.6,0010.58,0006.11,0005.25
2023-05-18 14:21:00,,0831.7,5.00,0.00,29.2,27.7,00.0,37.6,30.9,28.3,0002.5,0010.42,0006.05,0005.25
2023-05-18 14:22:00,,0831.7,5.00,0.00,29.2,27.7,00.0,37.6,30.9,28.4,0002.8,0010.30,0006.05,0005.26
2023-05-18 14:23:00,,0831.7,5.00,0.00,29.3,27.7,00.0,37.6,30.9,28.4,0002.9,0010.42,0006.10,0005.28
2023-05-18 14:24:00,,0831.7,5.00,0.00,29.3,27.7,00.0,37.6,30.9,28.6,0003.3,0010.44,0006.12,0005.29
2023-05-18 14:25:00,,0831.7,5.00,0.00,29.3,27.7,00.0,37.6,30.9,28.6,0003.1,0010.24,0006.11,0005.31
2023-05-18 14:26:00,,0831.7,5.01,0.00,29.3,27.7,00.0,37.6,30.9,28.7,0003.0,0010.26,0006.13,0005.31
2023-05-18 14:27:00,,0831.7,4.99,0.00,29.3,27.7,00.0,37.6,30.9,28.3,0003.1,0010.23,0006.12,0005.32
2023-05-18 14:28:00,,0831.7,5.00,0.00,29.3,27.7,00.0,37.6,30.9,28.6,0003.1,0010.01,0006.10,0005.31
2023-05-18 14:29:00,,0831.7,5.01,0.00,29.3,27.8,00.0,37.6,30.9,28.3,0003.3,0009.90,0006.14,0005.32
2023-05-18 14:30:00,,0831.7,5.01,0.00,29.3,27.8,00.0,37.6,30.9,28.2,0003.3,0009.81,0006.12,0005.32
2023-05-18 14:31:00,,0831.7,4.98,0.00,29.3,27.8,00.0,37.6,30.9,28.1,0001.1,0009.82,0006.13,0005.31
2023-05-18 14:32:00,,0831.7,4.99,0.00,29.3,27.8,00.0,37.6,30.9,28.3,0000.0,0009.69,0006.14,0005.32
2023-05-18 14:33:00,,0831.7,5.01,0.00,29.3,27.8,00.0,37.7,30.9,28.5,0000.0,0009.65,0006.14,0005.32
2023-05-18 14:34:00,,0831.7,5.01,0.00,29.4,27.8,00.0,37.7,31.0,28.5,0000.0,0009.65,0006.11,0005.31
2023-05-18 14:35:00,,0831.7,4.99,0.00,29.4,27.8,00.0,37.7,31.0,28.0,0000.0,0009.73,0006.11,0005.30
2023-05-18 14:36:00,,0831.7,5.00,0.00,29.4,27.9,00.0,37.7,31.0,27.8,0000.0,0009.70,0006.09,0005.29
2023-05-18 14:37:00,,0831.7,5.01,0.00,29.4,27.9,00.0,37.7,31.0,27.8,0000.0,0009.79,0006.06,0005.28
2023-05-18 14:38:00,,0831.7,4.99,0.00,29.4,27.9,00.0,37.7,31.0,27.7,0000.2,0009.92,0006.09,0005.27
2023-05-18 14:39:00,,0831.7,4.99,0.00,29.4,27.9,00.0,37.7,31.0,27.6,0000.2,0009.97,0006.10,0005.29
2023-05-18 14:40:00,,0831.7,5.01,0.00,29.4,27.9,00.0,37.7,31.0,27.9,0000.0,0010.41,0006.08,0005.28
2023-05-18 14:41:00,,0831.7,5.00,0.00,29.4,27.9,00.0,37.7,31.0,28.3,0000.0,0010.87,0006.13,0005.28
2023-05-18 14:42:00,,0831.7,4.98,0.00,29.4,27.9,00.0,37.7,31.0,28.1,0000.0,0010.78,0006.11,0005.29
2023-05-18 14:43:00,,0831.7,5.01,0.00,29.4,27.9,00.0,37.7,31.1,28.1,0000.0,0010.70,0006.08,0005.29
2023-05-18 14:44:00,,0831.7,5.00,0.00,29.5,27.9,00.0,37.8,31.1,28.5,0000.0,0010.68,0006.07,0005.29
2023-05-18 14:45:00,,0831.6,5.00,0.00,29.5,28.0,00.0,37.8,31.1,28.0,0000.0,0010.81,0006.08,0005.29
2023-05-18 14:46:00,,0831.6,5.01,0.00,29.5,28.0,00.0,37.8,31.1,27.9,0000.0,0010.67,0006.07,0005.29
2023-05-18 14:47:00,,0831.7,4.98,0.00,29.5,28.0,00.0,37.8,31.1,28.5,0000.0,0010.72,0006.08,0005.29
2023-05-18 14:48:00,,0831.7,5.01,0.00,29.5,28.0,00.0,37.8,31.1,28.1,0000.0,0010.68,0006.12,0005.31
2023-05-18 14:49:00,,0831.7,5.01,0.00,29.5,28.0,00.0,37.8,31.1,27.9,0000.0,0010.60,0006.11,0005.33
2023-05-18 14:50:00,,0831.7,4.98,0.00,29.5,28.0,00.0,37.8,31.1,27.9,0000.0,0010.52,0006.12,0005.35
2023-05-18 14:51:00,,0831.7,5.00,0.00,29.5,28.0,00.0,37.8,31.1,28.2,0000.0,0009.98,0006.11,0005.36
2023-05-18 14:52:00,,0831.7,5.01,0.00,29.5,28.0,00.0,37.8,31.1,28.5,0000.0,0009.63,0006.05,0005.36
2023-05-18 14:53:00,,0832.1,5.01,0.00,29.5,28.0,00.0,37.8,31.1,27.7,0000.0,0009.90,0006.05,0005.37
2023-05-18 14:54:00,,0832.1,4.99,0.00,29.5,28.0,00.0,37.8,31.2,28.0,0000.0,0009.93,0006.05,0005.37
2023-05-18 14:55:00,,0832.0,5.00,0.00,29.6,28.0,00.0,37.8,31.2,28.0,0000.0,0010.37,0006.13,0005.38
2023-05-18 14:56:00,,0832.3,5.00,0.00,29.6,28.0,00.0,37.9,31.2,27.9,0000.0,0010.41,0006.14,0005.41
2023-05-18 14:57:00,,0832.4,5.00,0.00,29.6,28.1,00.0,37.9,31.2,27.8,0000.0,0010.76,0006.13,0005.42
2023-05-18 14:58:00,,0832.3,5.01,0.00,29.6,28.1,00.0,37.9,31.2,28.4,0000.0,0010.75,0006.14,0005.43
2023-05-18 14:59:00,,0832.0,5.00,0.00,29.6,28.1,00.0,37.9,31.2,28.8,0000.0,0010.69,0006.11,0005.42
